,,,PA_Meas_PMT16A,,PR_Meas_QMR101_102,,RH_Meas_QMH101,,SR_Meas_QMS101,,TA_Meas_QMH101,,GenWind,,GenWind,
date,time,status,PA,status,PR,status,RH,status,SR,status,TA,status,DirAvg,status,SpdAvg,
2010-07-12, 00:00:05,VALID,1010.61,VALID,0,VALID,102.482,VALID,0.105969,VALID,24.3158,VALID,337,VALID,0,
2010-07-12, 00:01:05,VALID,1010.63,VALID,0,VALID,102.475,VALID,0.105969,VALID,24.3371,VALID,337,VALID,0,
2010-07-12, 00:02:05,VALID,1010.64,VALID,0,VALID,102.49,VALID,0.105969,VALID,24.3158,VALID,336,VALID,0,
2010-07-12, 00:03:05,VALID,1010.67,VALID,0,VALID,102.498,VALID,0.105969,VALID,24.3176,VALID,336,VALID,0,
2010-07-12, 00:04:05,VALID,1010.67,VALID,0,VALID,102.482,VALID,0.105969,VALID,24.2963,VALID,336,VALID,0,
2010-07-12, 00:05:05,VALID,1010.67,VALID,0,VALID,102.482,VALID,0.105969,VALID,24.2963,VALID,337,VALID,0,
2010-07-12, 00:06:05,VALID,1010.69,VALID,0,VALID,102.467,VALID,0.105969,VALID,24.2963,VALID,336,VALID,0,
2010-07-12, 00:07:05,VALID,1010.72,VALID,0,VALID,102.475,VALID,0.105969,VALID,24.3176,VALID,337,VALID,0,
2010-07-12, 00:08:05,VALID,1010.73,VALID,0,VALID,102.49,VALID,0.105969,VALID,24.2963,VALID,337,VALID,0,
2010-07-12, 00:09:05,VALID,1010.73,VALID,0,VALID,102.498,VALID,0,VALID,24.3176,VALID,337,VALID,0,
2010-07-12, 00:10:05,VALID,1010.77,VALID,0,VALID,102.498,VALID,0,VALID,24.2768,VALID,336,VALID,0,
2010-07-12, 00:11:05,VALID,1010.76,VALID,0,VALID,102.467,VALID,0.105969,VALID,24.2768,VALID,337,VALID,0,
2010-07-12, 00:12:05,VALID,1010.75,VALID,0,VALID,102.467,VALID,0,VALID,24.2981,VALID,337,VALID,0,
2010-07-12, 00:13:05,VALID,1010.73,VALID,0,VALID,102.46,VALID,0.105969,VALID,24.2981,VALID,337,VALID,0,
2010-07-12, 00:14:05,VALID,1010.75,VALID,0,VALID,102.414,VALID,0,VALID,24.2981,VALID,337,VALID,0,
2010-07-12, 00:15:05,VALID,1010.75,VALID,0,VALID,102.414,VALID,0.105969,VALID,24.2768,VALID,337,VALID,0,
2010-07-12, 00:16:05,VALID,1010.76,VALID,0,VALID,102.421,VALID,0.105969,VALID,24.2963,VALID,337,VALID,0,
2010-07-12, 00:17:05,VALID,1010.79,VALID,0,VALID,102.421,VALID,0.105969,VALID,24.3176,VALID,337,VALID,0,
2010-07-12, 00:18:05,VALID,1010.79,VALID,0,VALID,102.421,VALID,0.105969,VALID,24.3158,VALID,337,VALID,0,
2010-07-12, 00:19:05,VALID,1010.82,VALID,0,VALID,102.429,VALID,0.105969,VALID,24.3371,VALID,337,VALID,0,
2010-07-12, 00:20:05,VALID,1010.83,VALID,0,VALID,102.414,VALID,0.105969,VALID,24.3352,VALID,337,VALID,0,
2010-07-12, 00:21:05,VALID,1010.83,VALID,0,VALID,102.414,VALID,0,VALID,24.3352,VALID,337,VALID,0,
2010-07-12, 00:22:05,VALID,1010.81,VALID,0,VALID,102.406,VALID,0.105969,VALID,24.3761,VALID,337,VALID,0,
2010-07-12, 00:23:05,VALID,1010.78,VALID,0,VALID,102.391,VALID,0.105969,VALID,24.3956,VALID,337,VALID,0,
2010-07-12, 00:24:05,VALID,1010.77,VALID,0,VALID,102.406,VALID,0.105969,VALID,24.3956,VALID,337,VALID,0,
2010-07-12, 00:25:05,VALID,1010.73,VALID,0,VALID,102.376,VALID,0,VALID,24.415,VALID,337,VALID,0,
2010-07-12, 00:26:05,VALID,1010.72,VALID,0,VALID,102.36,VALID,0.105969,VALID,24.3742,VALID,337,VALID,0,
2010-07-12, 00:27:05,VALID,1010.72,VALID,0,VALID,102.292,VALID,0.105969,VALID,24.3742,VALID,336,VALID,0,
2010-07-12, 00:28:05,VALID,1010.72,VALID,0,VALID,102.292,VALID,0.105969,VALID,24.3742,VALID,337,VALID,0,
2010-07-12, 00:29:05,VALID,1010.72,VALID,0,VALID,102.307,VALID,0.105969,VALID,24.3742,VALID,337,VALID,0,
2010-07-12, 00:30:05,VALID,1010.72,VALID,0,VALID,102.33,VALID,0.105969,VALID,24.3742,VALID,337,VALID,0,
2010-07-12, 00:31:05,VALID,1010.73,VALID,0,VALID,102.315,VALID,0.105969,VALID,24.3761,VALID,337,VALID,0,
2010-07-12, 00:32:05,VALID,1010.74,VALID,0,VALID,102.299,VALID,0.105969,VALID,24.3547,VALID,337,VALID,0,
2010-07-12, 00:33:05,VALID,1010.72,VALID,0,VALID,102.292,VALID,0.105969,VALID,24.3547,VALID,336,VALID,0,
2010-07-12, 00:34:05,VALID,1010.75,VALID,0,VALID,102.315,VALID,0,VALID,24.3547,VALID,337,VALID,0,
2010-07-12, 00:35:05,VALID,1010.73,VALID,0,VALID,102.322,VALID,0,VALID,24.3742,VALID,334,VALID,0,
2010-07-12, 00:36:05,VALID,1010.75,VALID,0,VALID,102.299,VALID,0,VALID,24.3956,VALID,335,VALID,0,
2010-07-12, 00:37:05,VALID,1010.76,VALID,0,VALID,102.315,VALID,0,VALID,24.3956,VALID,88,VALID,0.290234,
2010-07-12, 00:38:05,VALID,1010.77,VALID,0,VALID,102.292,VALID,0,VALID,24.3956,VALID,76,VALID,0.471094,
2010-07-12, 00:39:05,VALID,1010.74,VALID,0,VALID,102.231,VALID,0,VALID,24.3956,VALID,109,VALID,0.545703,
2010-07-12, 00:40:05,VALID,1010.7,VALID,0,VALID,102.162,VALID,0,VALID,24.4345,VALID,51,VALID,0.399609,
2010-07-12, 00:41:04,VALID,1010.68,VALID,0,VALID,102.132,VALID,0,VALID,24.454,VALID,117,VALID,0.557813,
2010-07-12, 00:42:04,VALID,1010.68,VALID,0,VALID,102.101,VALID,0,VALID,24.4735,VALID,55,VALID,0.777344,
2010-07-12, 00:43:04,VALID,1010.65,VALID,0,VALID,102.002,VALID,0,VALID,24.4522,VALID,76,VALID,0.316797,
2010-07-12, 00:44:04,VALID,1010.61,VALID,0,VALID,101.933,VALID,0,VALID,24.493,VALID,71,VALID,0.447656,
2010-07-12, 00:45:04,VALID,1010.62,VALID,0,VALID,101.895,VALID,0,VALID,24.493,VALID,71,VALID,0,
2010-07-12, 00:46:04,VALID,1010.6,VALID,0,VALID,101.872,VALID,0,VALID,24.4717,VALID,71,VALID,0.119141,
2010-07-12, 00:47:04,VALID,1010.56,VALID,0,VALID,101.827,VALID,0,VALID,24.454,VALID,94,VALID,0.433984,
2010-07-12, 00:48:04,VALID,1010.57,VALID,0,VALID,101.781,VALID,0.105969,VALID,24.4522,VALID,44,VALID,0,
2010-07-12, 00:49:04,VALID,1010.56,VALID,0,VALID,101.781,VALID,0,VALID,24.4735,VALID,76,VALID,0.612109,
2010-07-12, 00:50:04,VALID,1010.57,VALID,0,VALID,101.72,VALID,0,VALID,24.4735,VALID,77,VALID,0.482031,
2010-07-12, 00:51:04,VALID,1010.55,VALID,0,VALID,101.72,VALID,0,VALID,24.4522,VALID,85,VALID,0.239844,
2010-07-12, 00:52:04,VALID,1010.58,VALID,0,VALID,101.758,VALID,0,VALID,24.4735,VALID,75,VALID,0.540625,
2010-07-12, 00:53:04,VALID,1010.54,VALID,0,VALID,101.781,VALID,0.105969,VALID,24.493,VALID,87,VALID,0,
2010-07-12, 00:54:04,VALID,1010.55,VALID,0,VALID,101.766,VALID,0.105969,VALID,24.4522,VALID,91,VALID,0.719531,
2010-07-12, 00:55:04,VALID,1010.5,VALID,0,VALID,101.743,VALID,0,VALID,24.493,VALID,71,VALID,0.755859,
2010-07-12, 00:56:04,VALID,1010.49,VALID,0,VALID,101.72,VALID,0.105969,VALID,24.4522,VALID,88,VALID,0.483594,
2010-07-12, 00:57:04,VALID,1010.45,VALID,0,VALID,101.628,VALID,0,VALID,24.493,VALID,48,VALID,0.496484,
2010-07-12, 00:58:04,VALID,1010.42,VALID,0,VALID,101.552,VALID,0,VALID,24.493,VALID,43,VALID,0.235156,
2010-07-12, 00:59:04,VALID,1010.4,VALID,0,VALID,101.567,VALID,0,VALID,24.5125,VALID,85,VALID,0.542969,
2010-07-12, 01:00:04,VALID,1010.36,VALID,0,VALID,101.545,VALID,0.105969,VALID,24.4911,VALID,71,VALID,0.926172,
2010-07-12, 01:01:04,VALID,1010.34,VALID,0,VALID,101.468,VALID,0.105969,VALID,24.4717,VALID,46,VALID,0.412109,
2010-07-12, 01:02:04,VALID,1010.31,VALID,0,VALID,101.476,VALID,0.105969,VALID,24.4911,VALID,101,VALID,0.476172,
2010-07-12, 01:03:04,VALID,1010.29,VALID,0,VALID,101.423,VALID,0,VALID,24.4735,VALID,90,VALID,0.816406,
2010-07-12, 01:04:04,VALID,1010.26,VALID,0,VALID,101.4,VALID,0,VALID,24.4717,VALID,46,VALID,0.419141,
2010-07-12, 01:05:04,VALID,1010.25,VALID,0,VALID,101.438,VALID,0,VALID,24.4522,VALID,57,VALID,0.453125,
2010-07-12, 01:06:04,VALID,1010.21,VALID,0,VALID,101.476,VALID,0.105969,VALID,24.4735,VALID,54,VALID,0.322266,
2010-07-12, 01:07:04,VALID,1010.17,VALID,0,VALID,101.514,VALID,0.105969,VALID,24.4522,VALID,18,VALID,0.0628906,
2010-07-12, 01:08:04,VALID,1010.15,VALID,0,VALID,101.384,VALID,0,VALID,24.454,VALID,64,VALID,1.0207,
2010-07-12, 01:09:04,VALID,1010.12,VALID,0,VALID,101.331,VALID,0,VALID,24.4522,VALID,37,VALID,0.196094,
2010-07-12, 01:10:04,VALID,1010.12,VALID,0,VALID,101.316,VALID,0,VALID,24.4522,VALID,115,VALID,0.546875,
2010-07-12, 01:11:04,VALID,1010.12,VALID,0,VALID,101.384,VALID,0,VALID,24.454,VALID,85,VALID,0.192188,
2010-07-12, 01:12:04,VALID,1010.13,VALID,0,VALID,101.316,VALID,0,VALID,24.454,VALID,51,VALID,0.646484,
2010-07-12, 01:13:04,VALID,1010.13,VALID,0,VALID,101.323,VALID,0,VALID,24.4132,VALID,84,VALID,0.344922,
2010-07-12, 01:14:04,VALID,1010.15,VALID,0,VALID,101.323,VALID,0.105969,VALID,24.4327,VALID,118,VALID,0.710156,
2010-07-12, 01:15:04,VALID,1010.18,VALID,0,VALID,101.339,VALID,0,VALID,24.454,VALID,82,VALID,0.455859,
2010-07-12, 01:16:04,VALID,1010.15,VALID,0,VALID,101.247,VALID,0,VALID,24.4132,VALID,63,VALID,0.849609,
2010-07-12, 01:17:04,VALID,1010.16,VALID,0,VALID,101.217,VALID,0,VALID,24.4327,VALID,48,VALID,0.655859,
2010-07-12, 01:18:04,VALID,1010.15,VALID,0,VALID,101.095,VALID,0.105969,VALID,24.4132,VALID,81,VALID,0.571484,
2010-07-12, 01:19:04,VALID,1010.18,VALID,0,VALID,101.079,VALID,0,VALID,24.4345,VALID,38,VALID,0.909375,
2010-07-12, 01:20:04,VALID,1010.12,VALID,0,VALID,101.026,VALID,0,VALID,24.4345,VALID,61,VALID,0.366406,
2010-07-12, 01:21:04,VALID,1010.11,VALID,0,VALID,100.927,VALID,0,VALID,24.4345,VALID,102,VALID,0.453516,
2010-07-12, 01:22:04,VALID,1010.11,VALID,0,VALID,100.896,VALID,0,VALID,24.4735,VALID,66,VALID,0.63125,
2010-07-12, 01:23:04,VALID,1010.08,VALID,0,VALID,100.881,VALID,0,VALID,24.4327,VALID,47,VALID,0.296875,
2010-07-12, 01:24:04,VALID,1010.05,VALID,0,VALID,100.912,VALID,0,VALID,24.454,VALID,97,VALID,0.418359,
2010-07-12, 01:25:04,VALID,1010.04,VALID,0,VALID,100.95,VALID,0,VALID,24.454,VALID,95,VALID,0.519922,
2010-07-12, 01:26:04,VALID,1010.03,VALID,0,VALID,100.881,VALID,0,VALID,24.4345,VALID,83,VALID,0.577734,
2010-07-12, 01:27:04,VALID,1010.02,VALID,0,VALID,100.751,VALID,0,VALID,24.4327,VALID,58,VALID,0.5375,
2010-07-12, 01:28:04,VALID,1010.02,VALID,0,VALID,100.744,VALID,0,VALID,24.454,VALID,92,VALID,0.0300781,
2010-07-12, 01:29:04,VALID,1009.99,VALID,0,VALID,100.797,VALID,0.105969,VALID,24.454,VALID,80,VALID,0.01875,
2010-07-12, 01:30:04,VALID,1009.99,VALID,0,VALID,100.599,VALID,0,VALID,24.4132,VALID,56,VALID,0.53125,
2010-07-12, 01:31:04,VALID,1009.98,VALID,0,VALID,100.53,VALID,0,VALID,24.4327,VALID,358,VALID,0.148438,
2010-07-12, 01:32:04,VALID,1009.97,VALID,0,VALID,100.721,VALID,0,VALID,24.454,VALID,109,VALID,0.436328,
2010-07-12, 01:33:04,VALID,1009.95,VALID,0,VALID,100.889,VALID,0,VALID,24.4327,VALID,99,VALID,0.0730469,
2010-07-12, 01:34:04,VALID,1009.94,VALID,0,VALID,100.736,VALID,0.105969,VALID,24.4345,VALID,319,VALID,0.633203,
2010-07-12, 01:35:04,VALID,1009.93,VALID,0,VALID,100.79,VALID,0.105969,VALID,24.4327,VALID,344,VALID,0.201562,
2010-07-12, 01:36:04,VALID,1009.91,VALID,0,VALID,100.927,VALID,0.105969,VALID,24.4327,VALID,346,VALID,0.108594,
2010-07-12, 01:37:04,VALID,1009.88,VALID,0,VALID,100.95,VALID,0.105969,VALID,24.4132,VALID,346,VALID,0,
2010-07-12, 01:38:04,VALID,1009.87,VALID,0,VALID,100.927,VALID,0.105969,VALID,24.4327,VALID,346,VALID,0,
2010-07-12, 01:39:04,VALID,1009.82,VALID,0,VALID,100.942,VALID,0.105969,VALID,24.4327,VALID,300,VALID,0.161719,
2010-07-12, 01:40:04,VALID,1009.85,VALID,0,VALID,100.973,VALID,0.105969,VALID,24.454,VALID,300,VALID,0,
2010-07-12, 01:41:04,VALID,1009.82,VALID,0,VALID,100.988,VALID,0.105969,VALID,24.4327,VALID,300,VALID,0.00507812,
2010-07-12, 01:42:04,VALID,1009.84,VALID,0,VALID,100.95,VALID,0.105969,VALID,24.454,VALID,300,VALID,0.00195313,
2010-07-12, 01:43:04,VALID,1009.82,VALID,0,VALID,101.034,VALID,0.105969,VALID,24.4327,VALID,286,VALID,0.248047,
2010-07-12, 01:44:04,VALID,1009.8,VALID,0,VALID,101.011,VALID,0.105969,VALID,24.4327,VALID,320,VALID,0.0476562,
2010-07-12, 01:45:04,VALID,1009.74,VALID,0,VALID,100.942,VALID,0.105969,VALID,24.4132,VALID,13,VALID,0.287891,
2010-07-12, 01:46:04,VALID,1009.77,VALID,0,VALID,100.889,VALID,0.105969,VALID,24.4132,VALID,69,VALID,0.143359,
2010-07-12, 01:47:04,VALID,1009.74,VALID,0,VALID,100.751,VALID,0.105969,VALID,24.3937,VALID,69,VALID,0.0496094,
2010-07-12, 01:48:04,VALID,1009.72,VALID,0,VALID,100.774,VALID,0.105969,VALID,24.3937,VALID,69,VALID,0,
2010-07-12, 01:49:04,VALID,1009.7,VALID,0,VALID,100.751,VALID,0.105969,VALID,24.3742,VALID,69,VALID,0.14375,
2010-07-12, 01:50:04,VALID,1009.75,VALID,0,VALID,100.706,VALID,0.105969,VALID,24.3742,VALID,47,VALID,0.755078,
2010-07-12, 01:51:04,VALID,1009.72,VALID,0,VALID,100.729,VALID,0.105969,VALID,24.3742,VALID,101,VALID,0.494141,
2010-07-12, 01:52:04,VALID,1009.71,VALID,0,VALID,100.706,VALID,0.105969,VALID,24.3937,VALID,93,VALID,0.611719,
2010-07-12, 01:53:04,VALID,1009.72,VALID,0,VALID,100.851,VALID,0.105969,VALID,24.415,VALID,93,VALID,0.00546875,
2010-07-12, 01:54:04,VALID,1009.73,VALID,0,VALID,100.873,VALID,0.105969,VALID,24.3937,VALID,29,VALID,0.222266,
2010-07-12, 01:55:04,VALID,1009.71,VALID,0,VALID,100.919,VALID,0.105969,VALID,24.4132,VALID,42,VALID,0.235938,
2010-07-12, 01:56:04,VALID,1009.72,VALID,0,VALID,100.805,VALID,0.105969,VALID,24.415,VALID,77,VALID,0.500781,
2010-07-12, 01:57:04,VALID,1009.7,VALID,0,VALID,100.69,VALID,0.105969,VALID,24.3937,VALID,58,VALID,0.246875,
2010-07-12, 01:58:04,VALID,1009.7,VALID,0,VALID,100.675,VALID,0.105969,VALID,24.3742,VALID,63,VALID,0.285547,
2010-07-12, 01:59:04,VALID,1009.68,VALID,0,VALID,100.614,VALID,0.105969,VALID,24.3742,VALID,91,VALID,0.445313,
2010-07-12, 02:00:04,VALID,1009.67,VALID,0,VALID,100.523,VALID,0.105969,VALID,24.415,VALID,85,VALID,0.0207031,
2010-07-12, 02:01:04,VALID,1009.65,VALID,0,VALID,100.675,VALID,0.105969,VALID,24.415,VALID,85,VALID,0.0835937,
2010-07-12, 02:02:04,VALID,1009.63,VALID,0,VALID,100.568,VALID,0.211938,VALID,24.3742,VALID,46,VALID,0.3375,
2010-07-12, 02:03:04,VALID,1009.62,VALID,0,VALID,100.477,VALID,0.105969,VALID,24.3937,VALID,60,VALID,0.46875,
2010-07-12, 02:04:04,VALID,1009.62,VALID,0,VALID,100.355,VALID,0.105969,VALID,24.3742,VALID,99,VALID,0.195703,
2010-07-12, 02:05:04,VALID,1009.59,VALID,0,VALID,100.302,VALID,0.105969,VALID,24.3742,VALID,99,VALID,0,
2010-07-12, 02:06:04,VALID,1009.57,VALID,0,VALID,100.286,VALID,0.105969,VALID,24.3937,VALID,99,VALID,0,
2010-07-12, 02:07:04,VALID,1009.53,VALID,0,VALID,100.294,VALID,0.105969,VALID,24.3742,VALID,99,VALID,0,
2010-07-12, 02:08:04,VALID,1009.5,VALID,0,VALID,100.317,VALID,0.105969,VALID,24.3937,VALID,99,VALID,0,
2010-07-12, 02:09:04,VALID,1009.48,VALID,0,VALID,100.385,VALID,0.105969,VALID,24.3937,VALID,99,VALID,0,
2010-07-12, 02:10:04,VALID,1009.48,VALID,0,VALID,100.446,VALID,0.105969,VALID,24.3937,VALID,99,VALID,0,
2010-07-12, 02:11:04,VALID,1009.49,VALID,0,VALID,100.309,VALID,0.105969,VALID,24.3742,VALID,99,VALID,0,
2010-07-12, 02:12:04,VALID,1009.46,VALID,0,VALID,100.21,VALID,0.105969,VALID,24.3547,VALID,99,VALID,0,
2010-07-12, 02:13:04,VALID,1009.47,VALID,0,VALID,100.355,VALID,0.105969,VALID,24.3742,VALID,99,VALID,0,
2010-07-12, 02:14:04,VALID,1009.45,VALID,0,VALID,100.317,VALID,0.105969,VALID,24.3742,VALID,99,VALID,0.170312,
2010-07-12, 02:15:04,VALID,1009.45,VALID,0,VALID,100.431,VALID,0.105969,VALID,24.3742,VALID,99,VALID,0.343359,
2010-07-12, 02:16:04,VALID,1009.42,VALID,0,VALID,100.629,VALID,0.105969,VALID,24.3937,VALID,99,VALID,0.390625,
2010-07-12, 02:17:04,VALID,1009.4,VALID,0,VALID,100.782,VALID,0.105969,VALID,24.3742,VALID,99,VALID,0.226563,
2010-07-12, 02:18:04,VALID,1009.38,VALID,0,VALID,100.637,VALID,0.211938,VALID,24.3547,VALID,115,VALID,0.294922,
2010-07-12, 02:19:04,VALID,1009.38,VALID,0,VALID,100.546,VALID,0,VALID,24.3566,VALID,115,VALID,0,
2010-07-12, 02:20:04,VALID,1009.4,VALID,0,VALID,100.683,VALID,0,VALID,24.3761,VALID,115,VALID,0,
2010-07-12, 02:21:04,VALID,1009.38,VALID,0,VALID,100.5,VALID,0,VALID,24.3566,VALID,115,VALID,0,
2010-07-12, 02:22:04,VALID,1009.39,VALID,0,VALID,100.317,VALID,0,VALID,24.3371,VALID,115,VALID,0,
2010-07-12, 02:23:04,VALID,1009.39,VALID,0,VALID,100.546,VALID,0,VALID,24.3566,VALID,115,VALID,0,
2010-07-12, 02:24:04,VALID,1009.42,VALID,0,VALID,100.797,VALID,0,VALID,24.3779,VALID,115,VALID,0.0941406,
2010-07-12, 02:25:04,VALID,1009.41,VALID,0,VALID,100.95,VALID,0.105969,VALID,24.3352,VALID,115,VALID,0.126172,
2010-07-12, 02:26:04,VALID,1009.41,VALID,0,VALID,100.95,VALID,0,VALID,24.3371,VALID,115,VALID,0.0648438,
2010-07-12, 02:27:04,VALID,1009.41,VALID,0,VALID,100.881,VALID,0,VALID,24.3176,VALID,115,VALID,0.228516,
2010-07-12, 02:28:04,VALID,1009.42,VALID,0,VALID,100.751,VALID,0,VALID,24.2981,VALID,115,VALID,0.111328,
2010-07-12, 02:29:04,VALID,1009.39,VALID,0,VALID,100.66,VALID,0,VALID,24.2981,VALID,115,VALID,0.203516,
2010-07-12, 02:30:04,VALID,1009.36,VALID,0,VALID,100.675,VALID,0,VALID,24.2786,VALID,115,VALID,0,
2010-07-12, 02:31:04,VALID,1009.37,VALID,0,VALID,100.934,VALID,0,VALID,24.2786,VALID,115,VALID,0.10625,
2010-07-12, 02:32:04,VALID,1009.33,VALID,0,VALID,101.056,VALID,0,VALID,24.2591,VALID,115,VALID,0.141016,
2010-07-12, 02:33:04,VALID,1009.34,VALID,0,VALID,101.11,VALID,0,VALID,24.2396,VALID,115,VALID,0,
2010-07-12, 02:34:04,VALID,1009.32,VALID,0,VALID,101.148,VALID,0,VALID,24.2007,VALID,115,VALID,0,
2010-07-12, 02:35:04,VALID,1009.3,VALID,0,VALID,101.217,VALID,0,VALID,24.1812,VALID,115,VALID,0,
2010-07-12, 02:36:04,VALID,1009.29,VALID,0,VALID,101.27,VALID,0,VALID,24.1812,VALID,115,VALID,0,
2010-07-12, 02:37:04,VALID,1009.3,VALID,0,VALID,101.354,VALID,0,VALID,24.183,VALID,115,VALID,0,
2010-07-12, 02:38:04,VALID,1009.28,VALID,0,VALID,101.484,VALID,0,VALID,24.1635,VALID,115,VALID,0,
2010-07-12, 02:39:04,VALID,1009.28,VALID,0,VALID,101.529,VALID,0,VALID,24.144,VALID,115,VALID,0,
2010-07-12, 02:40:04,VALID,1009.28,VALID,0,VALID,101.606,VALID,0,VALID,24.1245,VALID,115,VALID,0,
2010-07-12, 02:41:04,VALID,1009.28,VALID,0,VALID,101.689,VALID,0,VALID,24.1051,VALID,115,VALID,0,
2010-07-12, 02:42:04,VALID,1009.29,VALID,0,VALID,101.804,VALID,0,VALID,24.0448,VALID,115,VALID,0,
2010-07-12, 02:43:04,VALID,1009.28,VALID,0,VALID,101.888,VALID,0,VALID,24.0466,VALID,115,VALID,0,
2010-07-12, 02:44:04,VALID,1009.3,VALID,0,VALID,101.918,VALID,0,VALID,24.0058,VALID,115,VALID,0,
2010-07-12, 02:45:04,VALID,1009.25,VALID,0,VALID,101.956,VALID,0,VALID,24.0076,VALID,115,VALID,0,
2010-07-12, 02:46:04,VALID,1009.25,VALID,0,VALID,102.01,VALID,0,VALID,23.9881,VALID,115,VALID,0,
2010-07-12, 02:47:04,VALID,1009.23,VALID,0,VALID,102.04,VALID,0,VALID,23.9686,VALID,115,VALID,0,
2010-07-12, 02:48:04,VALID,1009.2,VALID,0,VALID,102.109,VALID,0,VALID,23.9881,VALID,115,VALID,0,
2010-07-12, 02:49:04,VALID,1009.19,VALID,0,VALID,102.177,VALID,0,VALID,23.9668,VALID,115,VALID,0,
2010-07-12, 02:50:04,VALID,1009.18,VALID,0,VALID,102.2,VALID,0,VALID,23.9473,VALID,115,VALID,0,
2010-07-12, 02:51:04,VALID,1009.14,VALID,0,VALID,102.238,VALID,0.105969,VALID,23.9473,VALID,115,VALID,0,
2010-07-12, 02:52:04,VALID,1009.12,VALID,0,VALID,102.292,VALID,0,VALID,23.926,VALID,115,VALID,0,
2010-07-12, 02:53:04,VALID,1009.14,VALID,0,VALID,102.307,VALID,0,VALID,23.9473,VALID,115,VALID,0,
2010-07-12, 02:54:04,VALID,1009.15,VALID,0,VALID,102.36,VALID,0.105969,VALID,23.9278,VALID,115,VALID,0,
2010-07-12, 02:55:04,VALID,1009.11,VALID,0,VALID,102.36,VALID,0,VALID,23.9084,VALID,115,VALID,0,
2010-07-12, 02:56:04,VALID,1009.1,VALID,0,VALID,102.391,VALID,0,VALID,23.9084,VALID,115,VALID,0.335547,
2010-07-12, 02:57:04,VALID,1009.11,VALID,0,VALID,102.391,VALID,0,VALID,23.8889,VALID,115,VALID,0.137109,
2010-07-12, 02:58:04,VALID,1009.11,VALID,0,VALID,102.429,VALID,0,VALID,23.8694,VALID,115,VALID,0.234375,
2010-07-12, 02:59:04,VALID,1009.11,VALID,0,VALID,102.414,VALID,0,VALID,23.8889,VALID,115,VALID,0.264844,
2010-07-12, 03:00:04,VALID,1009.09,VALID,0,VALID,102.444,VALID,0,VALID,23.8694,VALID,51,VALID,0.113672,
2010-07-12, 03:01:04,VALID,1009.09,VALID,0,VALID,102.467,VALID,0,VALID,23.8694,VALID,64,VALID,0.298828,
2010-07-12, 03:02:04,VALID,1009.09,VALID,0,VALID,102.475,VALID,0.105969,VALID,23.8676,VALID,91,VALID,0.329297,
2010-07-12, 03:03:04,VALID,1009.07,VALID,0,VALID,102.452,VALID,0.105969,VALID,23.8676,VALID,91,VALID,0.323828,
2010-07-12, 03:04:04,VALID,1009.08,VALID,0,VALID,102.482,VALID,0,VALID,23.8871,VALID,91,VALID,0.130859,
2010-07-12, 03:05:04,VALID,1009.08,VALID,0,VALID,102.467,VALID,0,VALID,23.9084,VALID,91,VALID,0.4625,
2010-07-12, 03:06:04,VALID,1009.08,VALID,0,VALID,102.46,VALID,0,VALID,23.8676,VALID,91,VALID,0.286328,
2010-07-12, 03:07:04,VALID,1009.07,VALID,0,VALID,102.46,VALID,0,VALID,23.8676,VALID,91,VALID,0.216016,
2010-07-12, 03:08:04,VALID,1009.11,VALID,0,VALID,102.429,VALID,0,VALID,23.8889,VALID,91,VALID,0.173828,
2010-07-12, 03:09:04,VALID,1009.14,VALID,0,VALID,102.46,VALID,0.105969,VALID,23.8871,VALID,98,VALID,0.5,
2010-07-12, 03:10:04,VALID,1009.12,VALID,0,VALID,102.49,VALID,0,VALID,23.9278,VALID,106,VALID,0.391406,
2010-07-12, 03:11:04,VALID,1009.15,VALID,0,VALID,102.49,VALID,0,VALID,23.8871,VALID,106,VALID,0.382031,
2010-07-12, 03:12:04,VALID,1009.14,VALID,0,VALID,102.49,VALID,0,VALID,23.8871,VALID,79,VALID,0.593359,
2010-07-12, 03:13:04,VALID,1009.15,VALID,0,VALID,102.498,VALID,0.105969,VALID,23.8871,VALID,73,VALID,0.528516,
2010-07-12, 03:14:04,VALID,1009.14,VALID,0,VALID,102.475,VALID,0,VALID,23.8889,VALID,91,VALID,0.372266,
2010-07-12, 03:15:04,VALID,1009.12,VALID,0,VALID,102.475,VALID,0.105969,VALID,23.9084,VALID,91,VALID,0.634766,
2010-07-12, 03:16:04,VALID,1009.11,VALID,0,VALID,102.421,VALID,0,VALID,23.8889,VALID,91,VALID,0.271484,
2010-07-12, 03:17:04,VALID,1009.11,VALID,0,VALID,102.421,VALID,0,VALID,23.9084,VALID,91,VALID,0.386719,
2010-07-12, 03:18:04,VALID,1009.11,VALID,0,VALID,102.429,VALID,0,VALID,23.8889,VALID,91,VALID,0.226172,
2010-07-12, 03:19:04,VALID,1009.11,VALID,0,VALID,102.391,VALID,0,VALID,23.8676,VALID,91,VALID,0.464453,
2010-07-12, 03:20:04,VALID,1009.13,VALID,0,VALID,102.368,VALID,0,VALID,23.9084,VALID,91,VALID,0.444531,
2010-07-12, 03:21:04,VALID,1009.14,VALID,0,VALID,102.353,VALID,0.105969,VALID,23.9084,VALID,91,VALID,0.145703,
2010-07-12, 03:22:04,VALID,1009.13,VALID,0,VALID,102.338,VALID,0,VALID,23.8871,VALID,91,VALID,0,
2010-07-12, 03:23:04,VALID,1009.13,VALID,0,VALID,102.338,VALID,0,VALID,23.8871,VALID,91,VALID,0,
2010-07-12, 03:24:04,VALID,1009.14,VALID,0,VALID,102.338,VALID,0,VALID,23.8676,VALID,91,VALID,0,
2010-07-12, 03:25:04,VALID,1009.14,VALID,0,VALID,102.33,VALID,0,VALID,23.8676,VALID,91,VALID,0,
2010-07-12, 03:26:04,VALID,1009.16,VALID,0,VALID,102.338,VALID,0,VALID,23.8481,VALID,91,VALID,0,
2010-07-12, 03:27:04,VALID,1009.16,VALID,0,VALID,102.33,VALID,0.105969,VALID,23.8694,VALID,91,VALID,0,
2010-07-12, 03:28:04,VALID,1009.2,VALID,0,VALID,102.36,VALID,0.105969,VALID,23.8286,VALID,91,VALID,0,
2010-07-12, 03:29:04,VALID,1009.23,VALID,0,VALID,102.376,VALID,0,VALID,23.8481,VALID,91,VALID,0,
2010-07-12, 03:30:04,VALID,1009.22,VALID,0,VALID,102.383,VALID,0,VALID,23.8091,VALID,91,VALID,0,
2010-07-12, 03:31:04,VALID,1009.23,VALID,0,VALID,102.391,VALID,0,VALID,23.8304,VALID,91,VALID,0,
2010-07-12, 03:32:04,VALID,1009.26,VALID,0,VALID,102.421,VALID,0.105969,VALID,23.8091,VALID,91,VALID,0,
2010-07-12, 03:33:04,VALID,1009.29,VALID,0,VALID,102.46,VALID,0.105969,VALID,23.8304,VALID,91,VALID,0,
2010-07-12, 03:34:04,VALID,1009.3,VALID,0,VALID,102.482,VALID,0.105969,VALID,23.8304,VALID,91,VALID,0,
2010-07-12, 03:35:04,VALID,1009.37,VALID,0,VALID,102.498,VALID,0,VALID,23.8304,VALID,91,VALID,0,
2010-07-12, 03:36:04,VALID,1009.35,VALID,0,VALID,102.528,VALID,0,VALID,23.8304,VALID,91,VALID,0,
2010-07-12, 03:37:04,VALID,1009.38,VALID,0,VALID,102.544,VALID,0.105969,VALID,23.8091,VALID,91,VALID,0.223047,
2010-07-12, 03:38:04,VALID,1009.39,VALID,0,VALID,102.551,VALID,0,VALID,23.8091,VALID,91,VALID,0.167578,
2010-07-12, 03:39:04,VALID,1009.41,VALID,0,VALID,102.559,VALID,0,VALID,23.8304,VALID,91,VALID,0.440625,
2010-07-12, 03:40:04,VALID,1009.42,VALID,0,VALID,102.582,VALID,0,VALID,23.8091,VALID,91,VALID,0.325781,
2010-07-12, 03:41:04,VALID,1009.41,VALID,0,VALID,102.574,VALID,0.105969,VALID,23.8304,VALID,80,VALID,0.552344,
2010-07-12, 03:42:04,VALID,1009.42,VALID,0,VALID,102.582,VALID,0,VALID,23.8286,VALID,78,VALID,0.173438,
2010-07-12, 03:43:04,VALID,1009.4,VALID,0,VALID,102.582,VALID,0,VALID,23.8499,VALID,78,VALID,0.105078,
2010-07-12, 03:44:04,VALID,1009.4,VALID,0,VALID,102.582,VALID,0,VALID,23.8481,VALID,79,VALID,0.0699219,
2010-07-12, 03:45:04,VALID,1009.41,VALID,0,VALID,102.574,VALID,0,VALID,23.8481,VALID,82,VALID,0.194531,